Date String (YYYY-MM-DD hh:mm:ss) UTC,Instrument flags,Ambient pressure (hPa),Sample flow (lpm),Bypass flow (lpm),Sample temperature (°C),Ambient temperature (°C),ASC tube jacket temperature (°C),LED temperature (°C),Box temperature (°C),Sample RH (%),Span deviation,Mass concentration (μg/m³),Mass concentration (μg/m³),Mass concentration (μg/m³)
DateTimeUTC,F1_M11,P_M11,Q1_M11,Q2_M11,T1_M11,T2_M11,T3_M11,T4_M11,T5_M11,U1_M11,ZSPAN_M11,X2_M11,X0_M11,X1_M11
2022-12-21 22:00:00,,0815.3,5.03,0.00,21.6,20.5,00.0,30.4,23.4,14.3,0000.0,0001.19,0005.92,0000.68
2022-12-21 22:01:00,,0815.4,5.02,0.00,21.6,20.5,00.0,30.5,23.4,14.3,0000.0,0001.19,0005.94,0000.68
2022-12-21 22:02:00,,0815.4,4.95,0.00,21.6,20.5,00.0,30.5,23.4,14.2,0000.0,0001.20,0006.00,0000.69
2022-12-21 22:03:00,,0815.3,5.02,0.00,21.6,20.5,00.0,30.5,23.4,14.2,0000.0,0001.17,0005.80,0000.68
2022-12-21 22:04:00,,0815.2,4.99,0.00,21.6,20.5,00.0,30.5,23.3,14.2,0000.0,0001.15,0007.31,0000.68
2022-12-21 22:05:00,,0815.1,5.00,0.00,21.6,20.5,00.0,30.5,23.3,14.3,0000.0,0001.13,0007.32,0000.67
2022-12-21 22:06:00,,0815.2,4.96,0.00,21.6,20.5,00.0,30.5,23.4,14.3,0000.0,0001.11,0007.23,0000.66
2022-12-21 22:07:00,,0815.3,5.02,0.00,21.6,20.5,00.0,30.5,23.4,14.2,0000.0,0001.14,0007.38,0000.65
2022-12-21 22:08:00,,0815.3,5.03,0.00,21.6,20.5,00.0,30.5,23.4,14.1,0000.0,0001.10,0006.08,0000.64
2022-12-21 22:09:00,,0815.3,5.01,0.00,21.7,20.5,00.0,30.5,23.4,14.2,0000.0,0001.05,0005.54,0000.63
2022-12-21 22:10:00,,0815.2,4.95,0.00,21.7,20.5,00.0,30.5,23.4,14.1,0000.0,0001.05,0006.06,0000.63
2022-12-21 22:11:00,,0815.2,5.00,0.00,21.7,20.5,00.0,30.5,23.4,14.1,0000.0,0001.06,0005.78,0000.63
2022-12-21 22:12:00,,0815.5,5.01,0.00,21.7,20.5,00.0,30.5,23.4,14.2,0000.0,0001.08,0005.65,0000.63
2022-12-21 22:13:00,,0815.3,5.02,0.00,21.7,20.5,00.0,30.5,23.4,14.2,0000.0,0001.05,0005.43,0000.62
2022-12-21 22:14:00,,0815.1,5.01,0.00,21.7,20.5,00.0,30.5,23.4,14.3,0000.0,0001.06,0005.44,0000.62
2022-12-21 22:15:00,,0815.1,4.99,0.00,21.7,20.5,00.0,30.5,23.4,14.4,0000.0,0001.04,0004.03,0000.60
2022-12-21 22:16:00,,0815.1,4.97,0.00,21.7,20.5,00.0,30.5,23.4,14.5,0000.0,0001.03,0003.59,0000.59
2022-12-21 22:17:00,,0815.1,5.02,0.00,21.7,20.5,00.0,30.5,23.4,14.5,0000.0,0001.04,0003.50,0000.59
2022-12-21 22:18:00,,0815.1,5.03,0.00,21.7,20.5,00.0,30.5,23.4,14.5,0000.0,0001.01,0003.35,0000.60
2022-12-21 22:19:00,,0815.1,4.99,0.00,21.7,20.5,00.0,30.5,23.3,14.5,0000.0,0001.02,0003.35,0000.61
2022-12-21 22:20:00,,0815.0,4.97,0.00,21.7,20.5,00.0,30.5,23.3,14.7,0000.0,0001.04,0002.86,0000.61
2022-12-21 22:21:00,,0815.1,5.02,0.00,21.7,20.4,00.0,30.5,23.4,14.7,0000.0,0000.99,0002.07,0000.60
2022-12-21 22:22:00,,0814.9,5.02,0.00,21.7,20.4,00.0,30.5,23.4,14.6,0000.0,0000.95,0002.73,0000.60
2022-12-21 22:23:00,,0815.2,5.00,0.00,21.7,20.4,00.0,30.5,23.3,14.6,0000.0,0000.93,0002.67,0000.60
2022-12-21 22:24:00,,0815.1,4.95,0.00,21.7,20.4,00.0,30.5,23.3,14.8,0000.0,0000.97,0002.80,0000.60
2022-12-21 22:25:00,,0815.1,4.99,0.00,21.7,20.4,00.0,30.5,23.3,14.8,0000.0,0000.96,0002.79,0000.61
2022-12-21 22:26:00,,0815.1,5.01,0.00,21.7,20.4,00.0,30.5,23.3,14.9,0000.0,0000.96,0002.79,0000.60
2022-12-21 22:27:00,,0815.1,5.01,0.00,21.6,20.3,00.0,30.5,23.3,15.0,0000.0,0001.00,0002.95,0000.61
2022-12-21 22:28:00,,0814.9,4.95,0.00,21.6,20.3,00.0,30.5,23.2,15.0,0000.0,0001.04,0003.39,0000.61
2022-12-21 22:29:00,,0814.9,5.02,0.00,21.6,20.3,00.0,30.5,23.2,14.9,0000.0,0001.04,0003.35,0000.61
2022-12-21 22:30:00,,0815.0,5.03,0.00,21.6,20.3,00.0,30.5,23.3,14.9,0000.0,0001.08,0003.60,0000.61
2022-12-21 22:31:00,,0815.0,4.98,0.00,21.6,20.3,00.0,30.5,23.3,15.0,0000.0,0001.11,0004.43,0000.62
2022-12-21 22:32:00,,0815.0,4.98,0.00,21.6,20.3,00.0,30.5,23.3,15.3,0000.0,0001.14,0004.63,0000.62
2022-12-21 22:33:00,,0815.1,5.02,0.00,21.6,20.3,00.0,30.5,23.2,15.5,0000.0,0001.15,0003.64,0000.62
2022-12-21 22:34:00,,0815.2,5.02,0.00,21.6,20.2,00.0,30.5,23.2,15.7,0000.0,0001.15,0003.58,0000.63
2022-12-21 22:35:00,,0815.2,4.97,0.00,21.6,20.2,00.0,30.5,23.2,15.8,0000.0,0001.15,0003.57,0000.63
2022-12-21 22:36:00,,0815.2,5.00,0.00,21.6,20.2,00.0,30.5,23.2,15.9,0000.0,0001.17,0003.65,0000.63
2022-12-21 22:37:00,,0815.1,5.02,0.00,21.5,20.1,00.0,30.5,23.1,16.0,0000.0,0001.21,0004.14,0000.65
2022-12-21 22:38:00,,0815.1,5.01,0.00,21.5,20.1,00.0,30.5,23.1,16.1,0000.0,0001.22,0005.37,0000.66
2022-12-21 22:39:00,,0815.0,4.96,0.00,21.5,20.1,00.0,30.4,23.1,16.2,0000.0,0001.20,0005.04,0000.67
2022-12-21 22:40:00,,0815.0,4.99,0.00,21.5,20.1,00.0,30.4,23.1,16.2,0000.0,0001.28,0005.28,0000.67
2022-12-21 22:41:00,,0814.9,5.02,0.00,21.5,20.1,00.0,30.4,23.2,16.2,0000.0,0001.65,0007.56,0000.71
2022-12-21 22:42:00,,0814.9,5.01,0.00,21.5,20.1,00.0,30.4,23.2,16.2,0000.0,0001.93,0008.51,0000.73
2022-12-21 22:43:00,,0814.9,4.97,0.00,21.5,20.1,00.0,30.4,23.2,15.7,0000.0,0002.04,0008.79,0000.75
2022-12-21 22:44:00,,0814.9,5.00,0.00,21.5,20.1,00.0,30.4,23.2,15.9,0000.0,0002.08,0008.92,0000.75
2022-12-21 22:45:00,,0814.9,5.02,0.00,21.5,20.0,00.0,30.4,23.2,16.0,0000.0,0002.05,0008.87,0000.74
2022-12-21 22:46:00,,0814.9,5.02,0.00,21.4,20.0,00.0,30.4,23.2,16.0,0000.0,0002.04,0008.83,0000.74
2022-12-21 22:47:00,,0815.0,4.97,0.00,21.4,20.0,00.0,30.4,23.2,15.9,0000.0,0002.00,0008.78,0000.73
2022-12-21 22:48:00,,0815.1,4.97,0.00,21.4,20.0,00.0,30.4,23.1,16.0,0000.0,0001.97,0008.53,0000.73
2022-12-21 22:49:00,,0815.1,5.02,0.00,21.4,20.0,00.0,30.4,23.1,15.9,0000.0,0001.94,0007.99,0000.73
2022-12-21 22:50:00,,0815.0,5.02,0.00,21.4,20.0,00.0,30.4,23.2,15.9,0000.0,0001.94,0008.11,0000.73
2022-12-21 22:51:00,,0815.0,5.01,0.00,21.4,20.0,00.0,30.4,23.2,15.8,0000.0,0001.91,0008.10,0000.73
2022-12-21 22:52:00,,0815.0,4.96,0.00,21.4,20.1,00.0,30.4,23.2,15.7,0000.0,0001.48,0005.78,0000.70
2022-12-21 22:53:00,,0815.0,5.00,0.00,21.4,20.1,00.0,30.4,23.1,15.7,0000.0,0001.16,0003.43,0000.66
2022-12-21 22:54:00,,0814.9,5.01,0.00,21.4,20.1,00.0,30.3,23.2,15.7,0000.0,0001.07,0002.92,0000.65
2022-12-21 22:55:00,,0814.9,5.00,0.00,21.4,20.1,00.0,30.3,23.2,15.9,0000.0,0001.06,0002.85,0000.66
2022-12-21 22:56:00,,0815.0,4.96,0.00,21.4,20.1,00.0,30.3,23.2,16.0,0000.0,0001.09,0003.03,0000.66
2022-12-21 22:57:00,,0814.9,5.01,0.00,21.4,20.1,00.0,30.3,23.1,16.0,0000.0,0001.08,0003.07,0000.66
2022-12-21 22:58:00,,0815.1,5.02,0.00,21.4,20.0,00.0,30.3,23.0,16.2,0000.0,0001.09,0003.15,0000.66
2022-12-21 22:59:00,,0815.1,5.01,0.00,21.4,20.0,00.0,30.3,23.0,16.2,0000.0,0001.11,0003.21,0000.66
